Starlink 30547

operational
NORAD ID: 58044 Int'l Des: 2023-156 Owner: SPXS Country: US Constellation: starlink
LEOCIRCULAR

Über Starlink 30547

Beschreibung wird geladen...

Live-Position

3D-Globus wird geladen...

Nächste Überflüge

Höhenverlauf

Altitude vs Time

uPlot chart will show altitude changes over time

Zweizeiliger Elementsatz

1 58044U 23156S 25350.94777492 -.00003460 00000-0 -10477-3 0 9999
2 58044 53.1589 192.5391 0001377 94.9042 265.2116 15.30187292122365
Epoch: 16. Dez. 2025 • Age: 10 hours

Aktueller Status

Höhe 479.5 km
Geschwindigkeit 7.63 km/s
Subsatellitenpunkt 46.73°N, 30.22°E
Startdatum 9. Okt. 2023
Alter 2.1 years
Typ internet

Technische Details

Klassifizierung Payload
Masse 730.00 kg
Trockenmasse 700.00 kg
Gesamtmasse 730.00 kg
Länge 0.30 m
Durchmesser 4.10 m
Spannweite 29.00 m
Form Box + pan
Hersteller SPXS
Bus-Typ Starlink V2M
Phasenstatus In Orbit
Besitzer/Staat SPXS/US

Große Konstellationen

Loading constellations...